Regional Weather Roundup
Issued by NWS Charleston, SC

Current Version | Previous Version | Text Only | Print | Product List | Glossary Off
Versions: 1 2 3 4 5 6 7 8 9 10 11 12 13 14 15 16 17 18 19 20 21 22 23 24 25 26 27 28 29 30 31 32 33 34 35 36 37 38 39 40 41 42 43 44 45 46 47 48 49 50
000 ASUS42 KCHS 310710 RWRCHS REGIONAL WEATHER ROUNDUP NATIONAL WEATHER SERVICE CHARLESTON SC 300 AM EDT FRI OCT 31 2014 NOTE: "FAIR" INDICATES FEW OR NO CLOUDS BELOW 12,000 FEET WITH NO SIGNIFICANT WEATHER AND/OR OBSTRUCTIONS TO VISIBILITY. NOT ALL STATIONS ARE QUALITY CONTROLLED BY THE NATIONAL WEATHER SERVICE. USE DATA WITH CAUTION...ESPECIALLY DEWPOINT OBSERVATIONS. SCZ027-030-031-034>040-042>050-310800- ...SOUTH CAROLINA... CITY SKY/WX TMP DP RH WIND PRES REMARKS N CHARLESTON PTCLDY 60 55 83 N7 29.90F WATERFRONT PRK N/A 63 N/A N/A E10 N/A FORT JOHNSON NOT AVBL JOHNS ISLAND CLOUDY 61 61 100 CALM 29.90S PINOPOLIS NOT AVBL MONCKS CORNER FAIR 55 54 94 CALM 29.91S SUMMERVILLE FAIR 50 50 100 CALM 29.91F BEAUFORT MCAS N/A N/A N/A N/A MISG N/A BEAUFORT ARPT FAIR 59 57 94 N3 29.89F HILTON HEAD IS NOT AVBL GEORGETOWN NOT AVBL WALTERBORO SUNNY 50 N/A N/A NW3 29.92F ORANGEBURG CLEAR 50 47 89 CALM 29.92F BARNWELL FAIR 48 46 93 CALM 29.92F AIKEN FAIR 45 43 93 CALM 29.96S MANNING FAIR 50 N/A N/A CALM 29.92F KINGSTREE NOT AVBL COLUMBIA CLEAR 45 41 86 CALM 29.93F SUMTER CLEAR 50 44 80 NE6 29.91F FLORENCE CLEAR 50 46 86 N5 29.93F MYRTLE BEACH CLOUDY 57 50 77 NE10 29.91F N MYRTLE BEACH PTCLDY 54 51 90 NE7 29.91S $$ GAZ063-065-086>088-099>101-113>116-118-119-134-136>141-150-310800- ...GEORGIA... CITY SKY/WX TMP DP RH WIND PRES REMARKS SAVANNAH ARPT FOG 57 54 88 CALM 29.89F VSB 3/4 HUNTER AAF CLEAR 59 57 93 N6 29.87F FORT STEWART CLEAR 51 50 93 CALM 29.88F FOG STATESBORO NOT AVBL SYLVANIA SUNNY 54 53 97 CALM 29.92S CLAXTON FAIR 48 48 100 CALM 29.91F THOMSON CLEAR 42 42 100 CALM 29.98F AUGUSTA-BUSH CLEAR 43 42 97 CALM 29.93F AUGUSTA-DANIEL CLEAR 53 43 68 N5 29.93F SWAINSBORO FAIR 46 46 100 MISG 29.93F VIDALIA CLEAR 52 46 82 CALM 29.91F ALMA CLEAR 50 47 89 CALM 29.90F WAYCROSS CLEAR 56 53 91 N3 29.89F JESUP FAIR 55 55 100 CALM 29.90F BRUNSWICK CLEAR 61 59 94 CALM 29.88F SAINT SIMONS MOCLDY 62 60 93 N7 29.87F $$ SCZ027-028-034-036>038-045-046-048>050-GAZ119-141-310800- ...LAKE AND SUPPLEMENTAL COASTAL OBSERVATIONS... STATION/POSITION TIME TEMP WIND PRES WAVE SWELL AIR SEA DIR/SP/G HT/PER HT/PER/DIR (UTC) (F) (DEG/KT/KT) (MB) (FT/S) (FT/S/D) UPR LAKE MARION NOT AVBL WINYAH BAY 0600 59 360/ 7 1012.0S LAKE MURRAY 0600 53 CALM / 3 1013.2F ACE BASIN NERRS 0600 56 360/ 1 1012.0S FORT PULASKI 0600 62 340/ 4/ 5 1012.5F SAPELO ISLAND NOT AVBL $$ ANZ835-935-AMZ111-154-330-350-352-354-374-450-454-472-310800- ...C-MAN AND BUOY OBSERVATIONS... STATION/POSITION TIME TEMP WIND PRES WAVE SWELL AIR SEA DIR/SP/G HT/PER HT/PER/DIR (UTC) (F) (DEG/KT/KT) (MB) (FT/S) (FT/S/D) FOLLY BEACH CMAN 0700 62 360/ 10/ 12 1012.4F BUOY 41004 0700 70 77 30/ 14/ 16 1010.2F 5/ 6 3/ 6 BUOY 41008 0700 69 74 20/ 10/ 12 1011.2F 2/ 5 2/ 60/ 5 5E ST. MARYS GA 0700 76 N/A 2/ 4 FRYING PAN BUOY 0700 66 73 40/ 21/ 23 1011.4F 5/ 6 BUOY 41025 0700 64 10/ 21/ 27 1011.3F 5/ 6 2/290/13 CAPE LOOKOUT NC 0700 61 20/ 15/ 18 1012.3F BUOY 41002 0643 75 78 180/ 6/ 8 1009.8F 3/ 8 3/ 70/ 8 BUOY 41010 0700 79 82 270/ 6/ 8 1010.1F 3/ 8 3/130/ 8 BUOY 41012 NOT AVBL ST AUGUSTINE FL 0700 65 310/ 7/ 8 1011.5F CAPERS NEARSHORE 0600 64 10/ 14/ 16 N/A FRIPP NEARSHORE NOT AVBL $$

USA.gov is the U.S. government's official web portal to all federal, state and local government web resources and services.